�������l�o���
Date,Time,MP-1(��Sv/h),MP-2(��Sv/h),MP-3(��Sv/h),MP-4(��Sv/h),MP-5(��Sv/h),MP-6(��Sv/h),MP-7(��Sv/h),MP-8(��Sv/h),����,����(m/s),���J
2022/05/22,00:00,0.584,0.862,0.554,1.039,0.746,0.350,0.604,0.568,��쐼,2.3,�L
2022/05/22,00:10,0.583,0.865,0.554,1.043,0.744,0.351,0.602,0.565,��쐼,2.0,�L
2022/05/22,00:20,0.583,0.862,0.551,1.042,0.743,0.351,0.601,0.567,��쐼,2.2,�L
2022/05/22,00:30,0.583,0.863,0.553,1.039,0.742,0.350,0.602,0.566,��쐼,1.4,�L
2022/05/22,00:40,0.584,0.863,0.555,1.040,0.744,0.349,0.603,0.566,�쐼,0.9,��
2022/05/22,00:50,0.583,0.864,0.553,1.042,0.745,0.351,0.603,0.565,���쐼,0.8,��
2022/05/22,01:00,0.584,0.862,0.553,1.040,0.743,0.350,0.604,0.567,-,CALM,��
2022/05/22,01:10,0.582,0.863,0.553,1.040,0.743,0.350,0.604,0.565,-,CALM,��
2022/05/22,01:20,0.584,0.864,0.553,1.041,0.743,0.351,0.602,0.565,�k�k��,0.6,��
2022/05/22,01:30,0.586,0.863,0.553,1.043,0.744,0.349,0.603,0.566,�k�k��,0.6,��
2022/05/22,01:40,0.583,0.862,0.555,1.040,0.744,0.350,0.604,0.566,�k�k��,1.2,��
2022/05/22,01:50,0.583,0.863,0.554,1.041,0.744,0.352,0.603,0.566,�k��,1.4,��
2022/05/22,02:00,0.586,0.865,0.552,1.042,0.745,0.352,0.602,0.567,�k�k��,1.5,�L
2022/05/22,02:10,0.585,0.863,0.554,1.042,0.743,0.351,0.603,0.565,�k�k��,3.8,��
2022/05/22,02:20,0.583,0.864,0.554,1.042,0.745,0.352,0.602,0.567,�k,4.6,��
2022/05/22,02:30,0.585,0.863,0.554,1.042,0.742,0.351,0.603,0.567,�k,4.8,�L
2022/05/22,02:40,0.587,0.864,0.552,1.041,0.744,0.351,0.603,0.568,�k,5.6,�L
2022/05/22,02:50,0.584,0.865,0.556,1.042,0.743,0.351,0.602,0.566,�k,5.4,�L
2022/05/22,03:00,0.584,0.863,0.554,1.043,0.744,0.352,0.604,0.566,�k,5.8,�L
2022/05/22,03:10,0.582,0.862,0.552,1.040,0.745,0.351,0.601,0.567,�k,5.6,�L
2022/05/22,03:20,0.583,0.864,0.554,1.042,0.744,0.351,0.601,0.567,�k,5.5,�L
2022/05/22,03:30,0.584,0.862,0.555,1.042,0.746,0.351,0.601,0.566,�k�k��,5.4,�L
2022/05/22,03:40,0.584,0.861,0.553,1.041,0.742,0.352,0.601,0.567,�k�k��,5.6,�L
2022/05/22,03:50,0.582,0.860,0.552,1.042,0.743,0.351,0.600,0.567,�k,4.7,�L
2022/05/22,04:00,0.581,0.860,0.552,1.042,0.744,0.350,0.601,0.566,�k,4.3,�L
2022/05/22,04:10,0.578,0.855,0.549,1.038,0.734,0.346,0.592,0.556,�k,2.6,�L
2022/05/22,04:20,0.575,0.843,0.541,1.010,0.705,0.342,0.586,0.551,�k��,4.0,�L
2022/05/22,04:30,0.572,0.835,0.540,1.004,0.705,0.344,0.585,0.549,�k�k��,4.2,�L
2022/05/22,04:40,0.571,0.834,0.540,1.005,0.705,0.344,0.582,0.549,�k��,3.5,�L
2022/05/22,04:50,0.569,0.833,0.539,1.005,0.704,0.343,0.585,0.549,�k��,3.1,�L
2022/05/22,05:00,0.569,0.832,0.539,1.002,0.704,0.344,0.583,0.551,�k��,4.4,�L
2022/05/22,05:10,0.569,0.834,0.539,1.004,0.706,0.343,0.584,0.549,�k��,6.0,�L
2022/05/22,05:20,0.570,0.831,0.540,1.004,0.706,0.343,0.584,0.550,�k��,7.1,�L
2022/05/22,05:30,0.569,0.834,0.539,1.004,0.706,0.343,0.586,0.550,���k��,6.9,�L
2022/05/22,05:40,0.568,0.833,0.539,1.002,0.708,0.343,0.584,0.551,���k��,6.5,�L
2022/05/22,05:50,0.563,0.833,0.536,1.000,0.701,0.341,0.585,0.550,�k��,6.5,�L
2022/05/22,06:00,0.561,0.820,0.534,0.996,0.695,0.341,0.584,0.549,�k�k��,3.6,�L
2022/05/22,06:10,0.562,0.823,0.534,0.994,0.697,0.339,0.582,0.551,�k��,2.3,�L
2022/05/22,06:20,0.562,0.820,0.535,0.995,0.698,0.340,0.582,0.550,�k�k��,1.5,�L
2022/05/22,06:30,0.561,0.822,0.539,0.999,0.697,0.339,0.584,0.551,�k,3.0,�L
2022/05/22,06:40,0.563,0.823,0.534,0.995,0.700,0.341,0.585,0.553,�k,3.8,��
2022/05/22,06:50,0.563,0.825,0.534,0.997,0.702,0.340,0.584,0.550,�k�k��,3.2,��
2022/05/22,07:00,0.564,0.826,0.535,0.997,0.701,0.340,0.584,0.552,�k�k��,3.2,�L
2022/05/22,07:10,0.564,0.827,0.534,0.999,0.704,0.340,0.584,0.552,�k,5.1,�L
2022/05/22,07:20,0.564,0.825,0.532,0.998,0.701,0.339,0.585,0.551,�k,4.2,�L
2022/05/22,07:30,0.560,0.825,0.534,0.997,0.703,0.341,0.584,0.552,�k,4.6,�L
2022/05/22,07:40,0.563,0.824,0.535,0.999,0.701,0.340,0.585,0.552,�k,3.6,�L
2022/05/22,07:50,0.565,0.823,0.535,0.999,0.704,0.340,0.585,0.552,�k,3.4,�L
2022/05/22,08:00,0.563,0.826,0.534,0.998,0.700,0.340,0.586,0.552,�k,3.8,�L
2022/05/22,08:10,0.564,0.823,0.534,0.998,0.703,0.340,0.584,0.554,�k,3.7,�L
2022/05/22,08:20,0.563,0.823,0.535,0.999,0.701,0.339,0.587,0.553,�k�k��,4.7,�L
2022/05/22,08:30,0.562,0.822,0.533,0.998,0.703,0.340,0.585,0.554,�k,4.6,�L
2022/05/22,08:40,0.563,0.821,0.535,0.999,0.700,0.341,0.586,0.553,�k,4.9,�L
2022/05/22,08:50,0.561,0.820,0.533,0.998,0.700,0.340,0.586,0.553,�k,4.2,�L
2022/05/22,09:00,0.562,0.819,0.532,1.000,0.701,0.340,0.584,0.552,�k,4.3,�L
2022/05/22,09:10,0.560,0.822,0.535,0.999,0.702,0.339,0.584,0.553,�k,5.1,�L
2022/05/22,09:20,0.560,0.821,0.533,0.999,0.702,0.340,0.585,0.551,�k�k��,6.3,�L
2022/05/22,09:30,0.560,0.820,0.533,0.999,0.702,0.338,0.585,0.553,�k�k��,5.5,�L
2022/05/22,09:40,0.560,0.819,0.534,0.998,0.701,0.340,0.586,0.552,�k�k��,5.3,�L
2022/05/22,09:50,0.559,0.820,0.534,1.000,0.705,0.340,0.586,0.553,�k,4.7,�L
2022/05/22,10:00,0.560,0.820,0.534,0.999,0.701,0.340,0.585,0.551,�k,4.4,�L
2022/05/22,10:10,0.560,0.820,0.533,0.998,0.701,0.340,0.584,0.551,�k�k��,4.5,�L
2022/05/22,10:20,0.559,0.818,0.532,0.997,0.702,0.340,0.584,0.550,�k,4.9,�L
2022/05/22,10:30,0.558,0.817,0.533,0.994,0.698,0.341,0.583,0.551,�k,4.7,�L
2022/05/22,10:40,0.557,0.812,0.532,0.993,0.697,0.340,0.582,0.550,�k�k��,5.1,�L
2022/05/22,10:50,0.556,0.812,0.531,0.994,0.695,0.340,0.582,0.549,�k,6.0,�L
2022/05/22,11:00,0.555,0.809,0.531,0.989,0.694,0.339,0.581,0.549,�k,5.9,�L
2022/05/22,11:10,0.554,0.811,0.531,0.990,0.693,0.338,0.581,0.547,�k,5.3,�L
2022/05/22,11:20,0.553,0.807,0.528,0.988,0.692,0.339,0.581,0.549,�k�k��,5.6,�L
2022/05/22,11:30,0.554,0.808,0.528,0.986,0.690,0.338,0.582,0.547,�k�k��,5.0,�L
2022/05/22,11:40,0.553,0.808,0.529,0.982,0.690,0.337,0.580,0.549,�k�k��,4.8,�L
2022/05/22,11:50,0.551,0.806,0.528,0.984,0.689,0.336,0.580,0.548,�k�k��,5.3,�L
2022/05/22,12:00,0.553,0.806,0.527,0.982,0.690,0.338,0.580,0.547,�k�k��,5.4,�L
2022/05/22,12:10,0.553,0.805,0.527,0.982,0.688,0.338,0.579,0.549,�k�k��,5.2,�L
2022/05/22,12:20,0.552,0.805,0.527,0.982,0.688,0.337,0.580,0.547,�k,4.9,�L
2022/05/22,12:30,0.552,0.804,0.526,0.980,0.688,0.338,0.579,0.547,�k�k��,5.3,�L
2022/05/22,12:40,0.553,0.801,0.526,0.977,0.685,0.337,0.578,0.546,�k��,6.6,�L
2022/05/22,12:50,0.552,0.800,0.526,0.978,0.686,0.336,0.579,0.547,�k�k��,6.2,�L
2022/05/22,13:00,0.552,0.803,0.528,0.977,0.686,0.338,0.578,0.548,�k,6.0,�L
2022/05/22,13:10,0.553,0.803,0.527,0.977,0.687,0.337,0.579,0.548,�k,5.6,�L
2022/05/22,13:20,0.552,0.806,0.527,0.978,0.687,0.338,0.578,0.548,�k,5.0,�L
2022/05/22,13:30,0.553,0.807,0.529,0.982,0.689,0.339,0.579,0.548,�k�k��,6.5,�L
2022/05/22,13:40,0.554,0.809,0.529,0.981,0.690,0.339,0.580,0.548,�k�k��,5.6,��
2022/05/22,13:50,0.553,0.809,0.529,0.983,0.690,0.338,0.578,0.548,�k�k��,4.7,�L
2022/05/22,14:00,0.553,0.811,0.527,0.983,0.691,0.339,0.579,0.548,�k,5.0,�L
2022/05/22,14:10,0.555,0.809,0.529,0.985,0.693,0.339,0.580,0.550,�k�k��,5.6,�L
2022/05/22,14:20,0.552,0.809,0.527,0.985,0.692,0.337,0.579,0.550,�k,5.5,�L
2022/05/22,14:30,0.552,0.806,0.526,0.982,0.691,0.339,0.578,0.548,�k�k��,5.7,�L
2022/05/22,14:40,0.551,0.806,0.527,0.984,0.692,0.339,0.579,0.548,�k,5.1,�L
2022/05/22,14:50,0.551,0.806,0.526,0.986,0.691,0.338,0.580,0.549,�k,4.5,�L
2022/05/22,15:00,0.551,0.805,0.527,0.984,0.691,0.339,0.580,0.548,�k,5.4,�L
2022/05/22,15:10,0.553,0.806,0.529,0.984,0.692,0.339,0.579,0.549,�k�k��,4.8,�L
2022/05/22,15:20,0.551,0.807,0.529,0.985,0.691,0.339,0.579,0.549,�k�k��,3.7,�L
2022/05/22,15:30,0.551,0.805,0.528,0.982,0.691,0.340,0.580,0.549,�k�k��,4.5,�L
2022/05/22,15:40,0.552,0.805,0.528,0.983,0.692,0.338,0.579,0.550,�k�k��,5.5,�L
2022/05/22,15:50,0.552,0.806,0.529,0.985,0.692,0.338,0.578,0.550,�k�k��,4.9,��
2022/05/22,16:00,0.555,0.807,0.527,0.985,0.692,0.340,0.579,0.552,�k,4.3,��
2022/05/22,16:10,0.553,0.808,0.529,0.985,0.692,0.338,0.579,0.551,�k�k��,4.3,��
2022/05/22,16:20,0.554,0.809,0.530,0.985,0.695,0.340,0.580,0.552,�k,5.4,��
2022/05/22,16:30,0.554,0.809,0.530,0.986,0.695,0.340,0.580,0.550,�k,4.5,��
2022/05/22,16:40,0.552,0.810,0.530,0.986,0.697,0.337,0.580,0.552,�k,3.5,��
2022/05/22,16:50,0.552,0.807,0.529,0.987,0.695,0.338,0.579,0.551,�k,5.4,��
2022/05/22,17:00,0.552,0.808,0.530,0.987,0.694,0.338,0.580,0.550,�k,4.5,��
2022/05/22,17:10,0.553,0.808,0.527,0.986,0.694,0.338,0.579,0.549,�k,6.2,��
2022/05/22,17:20,0.553,0.809,0.528,0.988,0.694,0.336,0.580,0.552,�k,6.5,��
2022/05/22,17:30,0.552,0.809,0.528,0.988,0.695,0.338,0.580,0.551,�k,6.7,�L
2022/05/22,17:40,0.553,0.811,0.528,0.989,0.694,0.339,0.579,0.550,�k,5.6,��
2022/05/22,17:50,0.553,0.810,0.529,0.989,0.695,0.338,0.580,0.551,�k,4.9,��
2022/05/22,18:00,0.554,0.809,0.527,0.990,0.695,0.340,0.581,0.551,�k,5.5,��
2022/05/22,18:10,0.554,0.811,0.529,0.990,0.696,0.339,0.579,0.551,�k,5.8,��
2022/05/22,18:20,0.556,0.812,0.529,0.990,0.697,0.338,0.580,0.550,�k,7.4,��
2022/05/22,18:30,0.555,0.812,0.529,0.987,0.696,0.339,0.581,0.551,�k,6.8,��
2022/05/22,18:40,0.555,0.811,0.529,0.990,0.697,0.338,0.582,0.552,�k,5.5,�L
2022/05/22,18:50,0.554,0.812,0.530,0.989,0.696,0.340,0.580,0.552,�k,5.2,�L
2022/05/22,19:00,0.555,0.813,0.529,0.992,0.699,0.339,0.581,0.552,�k,4.6,�L
2022/05/22,19:10,0.555,0.812,0.529,0.989,0.696,0.338,0.581,0.552,�k,5.2,�L
2022/05/22,19:20,0.555,0.811,0.529,0.990,0.697,0.340,0.580,0.551,�k�k��,6.2,�L
2022/05/22,19:30,0.555,0.811,0.528,0.989,0.696,0.340,0.580,0.553,�k�k��,6.9,��
2022/05/22,19:40,0.557,0.810,0.530,0.989,0.697,0.340,0.580,0.551,�k�k��,5.4,��
2022/05/22,19:50,0.556,0.809,0.531,0.991,0.696,0.340,0.581,0.551,�k�k��,5.0,��
2022/05/22,20:00,0.555,0.810,0.528,0.989,0.696,0.340,0.581,0.552,�k�k��,4.9,��
2022/05/22,20:10,0.556,0.813,0.528,0.990,0.698,0.341,0.581,0.552,�k�k��,6.0,��
2022/05/22,20:20,0.554,0.812,0.528,0.990,0.698,0.341,0.583,0.555,�k�k��,5.7,��
2022/05/22,20:30,0.557,0.812,0.530,0.992,0.697,0.341,0.580,0.554,�k�k��,4.4,��
2022/05/22,20:40,0.557,0.814,0.527,0.989,0.699,0.339,0.581,0.553,�k�k��,4.5,��
2022/05/22,20:50,0.556,0.813,0.531,0.991,0.697,0.340,0.580,0.554,�k�k��,3.4,��
2022/05/22,21:00,0.556,0.814,0.528,0.992,0.700,0.340,0.582,0.553,�k��,4.0,��
2022/05/22,21:10,0.555,0.813,0.529,0.991,0.699,0.341,0.582,0.554,�k�k��,5.1,��
2022/05/22,21:20,0.556,0.813,0.528,0.989,0.699,0.339,0.582,0.553,�k�k��,4.5,��
2022/05/22,21:30,0.555,0.813,0.529,0.992,0.699,0.341,0.582,0.552,�k�k��,4.9,��
2022/05/22,21:40,0.556,0.813,0.527,0.990,0.697,0.340,0.583,0.553,�k�k��,4.2,��
2022/05/22,21:50,0.555,0.814,0.530,0.992,0.700,0.340,0.583,0.553,�k�k��,4.6,��
2022/05/22,22:00,0.555,0.811,0.529,0.991,0.698,0.340,0.583,0.553,�k�k��,4.8,��
2022/05/22,22:10,0.555,0.813,0.529,0.992,0.698,0.340,0.584,0.554,�k�k��,5.0,��
2022/05/22,22:20,0.555,0.814,0.530,0.992,0.699,0.340,0.585,0.553,�k�k��,5.2,��
2022/05/22,22:30,0.554,0.814,0.529,0.992,0.698,0.338,0.584,0.556,�k�k��,5.2,��
2022/05/22,22:40,0.555,0.815,0.531,0.993,0.697,0.341,0.584,0.555,�k�k��,5.9,��
2022/05/22,22:50,0.556,0.814,0.529,0.991,0.698,0.340,0.584,0.552,�k�k��,5.5,��
2022/05/22,23:00,0.557,0.813,0.529,0.992,0.699,0.340,0.585,0.553,�k��,4.5,��
2022/05/22,23:10,0.556,0.814,0.529,0.993,0.699,0.340,0.585,0.553,�k��,5.4,��
2022/05/22,23:20,0.555,0.813,0.531,0.995,0.698,0.338,0.584,0.554,�k��,5.6,��
2022/05/22,23:30,0.555,0.812,0.529,0.989,0.700,0.341,0.585,0.553,�k��,6.3,��
2022/05/22,23:40,0.555,0.814,0.529,0.994,0.701,0.340,0.585,0.553,�k��,6.1,��
2022/05/22,23:50,0.556,0.812,0.528,0.991,0.700,0.339,0.584,0.553,�k��,5.5,��
